Flag for Japan Weather past 2 weeks in Hamamatsu, Japan

Now
69 °F

Mild.


Feels Like: 69 °F
Forecast: 60 / 77 °F
Wind: 9 mph from Northeast

Location: Omaezaki

Current Time: Sep 21, 2014 at 9:54:56 AM

Latest Report: Sep 21, 2014 at 8:00 AM


Visibility: 13 mi

Pressure: 30.04 "Hg

Humidity: 61%

Dew point: 55 °F

Location of HamamatsuLocation

Historic Weather in Hamamatsu — Graph

°F

Hamamatsu temperature yesterday

Maximum temperature yesterday: 72 °F (at 10:00 AM)
Minimum temperature yesterday: 68 °F (at 10:00 PM)
Average temperature yesterday: 70 °F

Past Weeks' High & Low Weather Summary

 TemperatureHumidityPressure
High83 °F (Sep 6, 2:00 PM)100% (Sep 7, 12:00 AM)30.04 "Hg (Sep 7, 12:00 AM)
Low65 °F (Sep 11, 4:00 AM)55% (Sep 18, 2:00 PM)29.59 "Hg (Sep 9, 1:00 AM)
Average74 °F78%29.84 "Hg
* Reported Sep 6 8:00 AM — Sep 21 8:00 AM, Hamamatsu, Weather by CustomWeather, © 2014

Note: Actual official high and low records may vary slightly from our data, if they occured in-between our weather recording intervals... More about our weather records

Advertising

Hamamatsu weather history for previous 24 hours

 ConditionsComfort  
Time TempWeatherWind HumidityBarometerVisibility
8:00 AM
Sep 21
69 °FMild.9 mph61%30.04 "Hg12 mi
7:00 AM68 °FMild.8 mph62%30.03 "Hg12 mi
6:00 AM66 °FMild.5 mph67%30.01 "Hg12 mi
5:00 AM66 °FMild.6 mph67%29.99 "Hg12 mi
4:00 AM66 °FMild.6 mph69%29.98 "Hg12 mi
3:00 AM66 °FMild.5 mph71%29.95 "Hg12 mi
2:00 AM66 °FMild.6 mph73%29.95 "Hg12 mi
10:00 PM
Sep 20
68 °FMild.8 mph67%29.97 "Hg12 mi
9:00 PM68 °FMild.7 mph65%29.97 "Hg12 mi
8:00 PM71 °FMild.7 mph59%29.96 "Hg12 mi
7:00 PM71 °FMild.7 mph57%29.94 "Hg12 mi
6:00 PM71 °FMild.8 mph58%29.91 "Hg12 mi
5:00 PM71 °FMild.9 mph59%29.90 "Hg12 mi
4:00 PM71 °FMild.8 mph59%29.88 "Hg12 mi
3:00 PM71 °FMild.10 mph58%29.88 "Hg12 mi
2:00 PM72 °FMild.10 mph57%29.88 "Hg12 mi
1:00 PM72 °FMild.6 mph58%29.90 "Hg12 mi
12:00 PM72 °FMild.8 mph61%29.91 "Hg12 mi
11:00 AM72 °FMild.6 mph60%29.91 "Hg12 mi
10:00 AM72 °FMild.9 mph55%29.92 "Hg12 mi
9:00 AM71 °FLight rain. Cloudy.9 mph72%29.93 "Hg12 mi
Weather by CustomWeather, © 2014

See weather overviewHow to use our weather pages